CW0775 Weather Reports


time (UTC)temp
C
wind
direction
speed
KPH
gust
KPH
rain 1hr
cm
rain 24hr
cm
rain mn
cm
humidity
%
barometer
mb
20191019151502 15 255 1.6 14.5 0.00 0.15 0.15 80 1006.0
20191019151003 15 251 4.8 9.7 0.00 0.15 0.15 80 1006.0
20191019150502 15 223 4.8 19.3 0.00 0.15 0.15 80 1006.0
20191019150003 15 157 4.8 19.3 0.00 0.15 0.15 81 1006.0
20191019144502 16 204 4.8 16.1 0.00 0.15 0.15 82 1006.0
20191019144003 16 66 3.2 14.5 0.00 0.15 0.15 82 1006.0
20191019143502 16 222 0.0 14.5 0.00 0.15 0.15 82 1006.0
20191019143003 16 80 4.8 19.3 0.00 0.15 0.15 82 1006.0
20191019141502 16 152 8.0 19.3 0.00 0.15 0.15 81 1006.0
20191019141003 16 290 4.8 14.5 0.00 0.15 0.15 82 1006.0
20191019140503 16 345 3.2 12.9 0.00 0.15 0.15 82 1006.0
20191019140003 16 47 4.8 14.5 0.00 0.15 0.15 82 1006.0
20191019134503 16 10 4.8 14.5 0.00 0.15 0.15 83 1006.0
20191019134003 16 140 8.0 19.3 0.00 0.15 0.15 84 1006.0
20191019133502 16 217 4.8 20.9 0.00 0.15 0.15 85 1006.0
20191019133002 16 201 3.2 19.3 0.00 0.15 0.15 85 1006.0
20191019131503 16 134 6.4 16.1 0.00 0.15 0.15 87 1006.0
20191019131002 16 158 4.8 14.5 0.00 0.15 0.15 88 1006.0
20191019130502 16 133 4.8 14.5 0.00 0.15 0.15 88 1006.0
20191019130003 16 138 4.8 19.3 0.00 0.15 0.15 89 1006.0
20191019124503 16 237 3.2 12.9 0.00 0.20 0.15 91 1007.0
20191019124004 16 170 3.2 11.3 0.00 0.25 0.15 92 1007.0
20191019123503 16 261 6.4 19.3 0.00 0.25 0.15 93 1006.0
20191019123003 15 37 4.8 19.3 0.00 0.25 0.15 94 1006.0
20191019121503 15 62 1.6 11.3 0.00 0.25 0.15 96 1007.0
20191019121003 15 354 1.6 9.7 0.00 0.25 0.15 96 1007.0
20191019120503 15 34 1.6 11.3 0.00 0.25 0.15 97 1007.0
20191019120003 15 339 3.2 12.9 0.00 0.25 0.15 98 1007.0
20191019114502 15 104 4.8 16.1 0.00 0.25 0.15 100 1007.0
20191019114003 15 136 4.8 12.9 0.00 0.25 0.15 100 1007.0
20191019113503 15 16 3.2 9.7 0.00 0.25 0.15 100 1007.0
20191019113003 15 48 4.8 12.9 0.00 0.25 0.15 100 1007.0
20191019111502 15 31 6.4 16.1 0.00 0.25 0.15 100 1007.0
20191019111002 15 181 4.8 19.3 0.10 0.25 0.15 100 1007.0
20191019101504 13 48 0.0 9.7 0.10 0.25 0.15 100 1008.0
20191019101005 13 57 4.8 12.9 0.00 0.15 0.05 100 1008.0
20191019100505 13 9 3.2 11.3 0.00 0.15 0.05 100 1008.0
20191019100004 12 7 1.6 9.7 0.00 0.15 0.05 100 1008.0
20191019094504 12 7 0.0 8.0 0.00 0.15 0.05 100 1008.0
20191019094004 11 7 0.0 0.0 0.00 0.15 0.05 100 1008.0
20191019093504 11 7 0.0 8.0 0.00 0.15 0.05 100 1008.0
20191019093005 11 7 3.2 11.3 0.00 0.15 0.05 100 1008.0
20191019091508 11 45 0.0 8.0 0.00 0.15 0.05 100 1008.0
20191019091005 11 45 0.0 0.0 0.00 0.15 0.05 100 1008.0
20191019090504 11 45 0.0 8.0 0.00 0.15 0.05 100 1008.0
20191019090004 11 45 0.0 11.3 0.00 0.15 0.05 100 1008.0
20191019084504 10 110 1.6 9.7 0.00 0.15 0.05 100 1008.0
20191019084004 10 112 0.0 9.7 0.00 0.15 0.05 100 1008.0
20191019083504 10 113 0.0 11.3 0.00 0.15 0.05 100 1008.0
20191019083005 10 15 3.2 12.9 0.00 0.15 0.05 100 1008.0
20191019081504 10 26 3.2 9.7 0.00 0.15 0.05 100 1008.0
20191019081005 10 336 0.0 8.0 0.00 0.15 0.05 100 1008.0
20191019080503 10 330 0.0 9.7 0.00 0.15 0.05 100 1008.0
20191019080003 10 11 0.0 12.9 0.00 0.15 0.05 100 1008.0
20191019074504 9 82 0.0 8.0 0.00 0.15 0.05 100 1008.0
20191019074004 9 82 0.0 8.0 0.00 0.15 0.05 100 1008.0
20191019073506 9 82 1.6 11.3 0.00 0.15 0.05 100 1008.0
20191019073007 9 69 3.2 12.9 0.00 0.15 0.05 100 1008.0
20191019071504 9 42 1.6 12.9 0.00 0.15 0.05 100 1008.0
20191019071005 9 40 4.8 9.7 0.00 0.15 0.05 100 1008.0
20191019070504 9 33 4.8 12.9 0.00 0.15 0.05 100 1008.0
20191019070005 9 358 1.6 12.9 0.00 0.15 0.05 100 1008.0
20191019064504 8 24 0.0 9.7 0.00 0.15 0.05 100 1008.0
20191019064004 8 78 0.0 9.7 0.00 0.15 0.05 100 1008.0
20191019063504 8 66 3.2 9.7 0.00 0.15 0.05 100 1008.0
20191019063005 8 28 0.0 9.7 0.00 0.15 0.05 100 1008.0
20191019061504 8 16 0.0 8.0 0.00 0.15 0.05 100 1008.0
20191019061005 8 16 0.0 8.0 0.00 0.15 0.05 100 1008.0
20191019060504 8 16 1.6 9.7 0.00 0.15 0.05 100 1008.0
20191019060004 8 16 0.0 9.7 0.00 0.15 0.05 100 1008.0
20191019054504 8 16 4.8 11.3 0.00 0.15 0.05 100 1008.0
20191019054005 8 349 0.0 9.7 0.00 0.15 0.05 100 1008.0
20191019053504 8 298 0.0 8.0 0.00 0.15 0.05 100 1008.0
20191019053005 8 303 0.0 11.3 0.00 0.15 0.05 100 1008.0
20191019051504 8 61 4.8 11.3 0.00 0.15 0.05 100 1008.0
20191019051005 8 269 0.0 9.7 0.05 0.15 0.05 100 1008.0
20191019050504 8 269 0.0 8.0 0.05 0.15 0.05 100 1008.0
20191019050004 8 269 0.0 8.0 0.05 0.15 0.05 100 1008.0
20191019044504 8 269 0.0 0.0 0.05 0.15 0.05 100 1009.0
20191019044005 8 269 0.0 0.0 0.05 0.15 0.05 100 1009.0
20191019043504 8 269 0.0 0.0 0.05 0.15 0.05 100 1009.0
20191019043004 8 269 0.0 0.0 0.05 0.15 0.05 100 1009.0
20191019041504 8 269 0.0 8.0 0.05 0.15 0.05 100 1009.0
20191019041005 8 269 0.0 8.0 0.00 0.10 0.00 100 1009.0
20191019040504 8 269 0.0 8.0 0.00 0.10 0.00 100 1009.0
20191019040004 8 269 0.0 9.7 0.00 0.10 0.00 100 1009.0
20191019034503 8 269 0.0 9.7 0.00 0.10 0.00 100 1009.0
20191019034004 8 269 0.0 0.0 0.00 0.10 0.00 100 1009.0
20191019033503 8 269 1.6 9.7 0.00 0.10 0.00 100 1009.0
20191019033004 8 269 0.0 8.0 0.00 0.10 0.00 100 1009.0
20191019031504 8 269 0.0 0.0 0.00 0.10 0.00 99 1009.0
20191019031004 8 269 0.0 0.0 0.00 0.10 0.00 99 1009.0
20191019030504 8 269 0.0 0.0 0.00 0.10 0.00 99 1009.0
20191019030004 8 269 0.0 0.0 0.00 0.10 0.00 99 1009.0
20191019024504 8 269 0.0 0.0 0.00 0.10 0.00 99 1009.0
20191019024004 7 269 0.0 0.0 0.00 0.10 0.00 99 1009.0
20191019023505 7 269 0.0 0.0 0.00 0.10 0.00 99 1009.0
20191019023005 7 269 0.0 9.7 0.00 0.10 0.00 99 1009.0
20191019021504 7 269 0.0 0.0 0.00 0.10 0.00 99 1010.0
20191019021005 7 269 0.0 0.0 0.00 0.10 0.00 99 1010.0
20191019020504 7 269 0.0 9.7 0.00 0.10 0.00 98 1009.0
20191019020005 7 269 1.6 9.7 0.00 0.10 0.00 98 1009.0
20191019014504 7 269 0.0 8.0 0.00 0.10 0.00 98 1009.0
20191019014005 7 269 0.0 8.0 0.00 0.10 0.00 98 1009.0
20191019013504 7 269 0.0 0.0 0.00 0.10 0.00 98 1010.0
20191019013005 7 269 0.0 0.0 0.00 0.10 0.00 98 1010.0
20191019011505 7 269 0.0 0.0 0.00 0.10 0.00 98 1010.0
20191019011005 7 269 0.0 0.0 0.00 0.10 0.00 98 1010.0
20191019010504 7 269 0.0 11.3 0.00 0.10 0.00 97 1010.0
20191019010004 7 269 3.2 11.3 0.00 0.10 0.00 97 1010.0
20191019004504 7 266 0.0 0.0 0.00 0.10 0.00 97 1010.0
20191019004004 7 266 0.0 0.0 0.00 0.10 0.00 97 1010.0
20191019003504 7 266 0.0 0.0 0.00 0.10 0.00 97 1010.0
20191019003004 7 266 0.0 8.0 0.00 0.10 0.00 97 1010.0
20191019001504 7 266 0.0 8.0 0.00 0.10 0.00 97 1010.0
20191019001005 7 267 0.0 8.0 0.00 0.10 0.00 97 1010.0
20191019000504 7 266 0.0 8.0 0.00 0.10 0.00 96 1010.0
20191019000004 7 266 0.0 9.7 0.00 0.10 0.00 96 1010.0
20191018234504 7 266 0.0 0.0 0.00 0.10 0.00 96 1010.0
20191018234004 7 266 0.0 0.0 0.00 0.10 0.00 96 1010.0
20191018233504 7 266 0.0 0.0 0.00 0.10 0.00 96 1010.0
20191018233005 7 266 0.0 9.7 0.00 0.10 0.00 96 1010.0
20191018231504 8 266 0.0 8.0 0.00 0.10 0.00 95 1010.0
20191018231004 8 266 0.0 0.0 0.00 0.10 0.00 95 1010.0
20191018230504 8 267 0.0 0.0 0.00 0.10 0.00 95 1011.0
20191018230004 8 266 0.0 8.0 0.00 0.10 0.00 95 1011.0
20191018224504 8 266 0.0 0.0 0.00 0.10 0.00 95 1011.0
20191018224005 8 266 0.0 0.0 0.00 0.10 0.00 95 1011.0
20191018223504 8 266 0.0 8.0 0.00 0.10 0.00 95 1011.0
20191018223005 8 266 0.0 0.0 0.00 0.10 0.00 95 1011.0
20191018221504 8 266 0.0 0.0 0.00 0.10 0.00 95 1011.0
20191018221005 8 267 0.0 0.0 0.00 0.10 0.00 95 1011.0
20191018220504 8 267 0.0 0.0 0.00 0.10 0.00 95 1011.0
20191018220005 8 266 0.0 0.0 0.00 0.10 0.00 95 1011.0
20191018214504 8 266 0.0 0.0 0.00 0.10 0.10 94 1011.0
20191018214005 8 266 0.0 0.0 0.00 0.10 0.10 94 1011.0
20191018213504 8 266 0.0 0.0 0.00 0.10 0.10 94 1011.0
20191018213004 8 267 0.0 8.0 0.00 0.10 0.10 94 1011.0
20191018211504 8 266 0.0 0.0 0.00 0.10 0.10 93 1011.0
20191018211005 8 266 0.0 0.0 0.00 0.10 0.10 93 1011.0
20191018210504 8 266 0.0 0.0 0.00 0.10 0.10 92 1011.0
20191018210004 8 266 0.0 0.0 0.00 0.10 0.10 92 1011.0
20191018204504 8 266 0.0 8.0 0.00 0.10 0.10 91 1011.0
20191018204004 8 266 0.0 8.0 0.00 0.10 0.10 91 1011.0
20191018203504 9 267 1.6 9.7 0.00 0.10 0.10 91 1011.0
20191018203005 9 177 0.0 8.0 0.00 0.10 0.10 91 1011.0
20191018201503 9 176 0.0 8.0 0.00 0.10 0.10 90 1011.0
20191018201005 9 177 0.0 9.7 0.00 0.10 0.10 90 1011.0
20191018200504 9 177 0.0 8.0 0.00 0.10 0.10 90 1011.0
20191018200004 9 177 0.0 8.0 0.00 0.10 0.10 90 1011.0
20191018194504 9 176 0.0 0.0 0.00 0.10 0.10 90 1011.0
20191018194005 9 176 0.0 8.0 0.00 0.10 0.10 90 1011.0
20191018193504 9 176 0.0 11.3 0.00 0.10 0.10 89 1011.0
20191018193004 9 253 0.0 9.7 0.00 0.10 0.10 89 1011.0
20191018191504 9 253 0.0 8.0 0.00 0.10 0.10 88 1011.0
20191018191005 9 253 0.0 0.0 0.00 0.10 0.10 88 1011.0
20191018190504 10 252 0.0 9.7 0.00 0.10 0.10 88 1011.0
20191018190004 10 251 0.0 9.7 0.00 0.15 0.10 88 1011.0
20191018184504 10 250 1.6 9.7 0.00 0.15 0.10 88 1011.0
20191018184004 10 216 0.0 8.0 0.00 0.15 0.10 87 1011.0
20191018183504 10 216 0.0 9.7 0.00 0.15 0.10 87 1011.0
20191018183005 10 216 1.6 11.3 0.00 0.20 0.10 87 1011.0
20191018181504 10 239 0.0 9.7 0.00 0.20 0.10 86 1011.0
20191018181005 10 239 1.6 9.7 0.00 0.20 0.10 86 1011.0
20191018180504 10 232 0.0 9.7 0.00 0.20 0.10 85 1011.0
20191018180004 10 243 0.0 9.7 0.00 0.20 0.10 85 1011.0
20191018174505 10 243 0.0 8.0 0.00 0.20 0.10 84 1011.0
20191018174005 10 243 0.0 0.0 0.00 0.20 0.10 84 1011.0
20191018173504 10 243 1.6 8.0 0.00 0.20 0.10 83 1011.0
20191018173005 10 243 1.6 9.7 0.00 0.20 0.10 83 1011.0
20191018171504 11 243 0.0 8.0 0.00 0.30 0.10 82 1011.0
20191018171005 11 243 0.0 9.7 0.00 0.30 0.10 81 1011.0
20191018170504 11 243 0.0 9.7 0.00 0.30 0.10 81 1011.0
20191018170005 11 240 0.0 0.0 0.00 0.30 0.10 80 1011.0
20191018164504 11 240 0.0 0.0 0.00 0.30 0.10 79 1011.0
20191018164004 11 240 0.0 8.0 0.00 0.30 0.10 78 1011.0
20191018163505 11 240 0.0 8.0 0.00 0.30 0.10 78 1010.0
20191018163004 12 240 0.0 8.0 0.00 0.30 0.10 77 1010.0
20191018161504 12 185 3.2 9.7 0.00 0.30 0.10 73 1010.0
20191018161005 12 256 0.0 12.9 0.00 0.30 0.10 72 1010.0
20191018160504 12 184 0.0 9.7 0.00 0.30 0.10 71 1010.0
20191018160004 12 295 1.6 19.3 0.00 0.30 0.10 70 1010.0
20191018154504 13 238 6.4 19.3 0.00 0.36 0.10 69 1010.0
20191018154004 13 258 4.8 20.9 0.00 0.36 0.10 68 1010.0
20191018153504 13 248 8.0 24.1 0.00 0.36 0.10 68 1010.0
20191018153005 13 274 9.7 29.0 0.00 0.36 0.10 68 1010.0